Dades meteomassalio
Diari Summary for Agost 4, 2017 Units:  Metric    English   Both
« Previous Day
Next Day »
Diari Semanal Mensual Anual Personalitzat
  Maxima: Minima: Mijana:
Temperatura: 38.1 °C 21.4 °C 30.2 °C
Rosada: 17.8 °C 12.9 °C 15.3 °C
Humitat: 67 % 23 % 43 %
Velocitat del vent: 22.5 km/h 0.0 km/h 4.1 km/h
Racha vent: 22.5 km/h - -
Vent:- - SW
Pressio: 1015.5 hPa 1011.4 hPa -
Pluja: 0.0 mm    
Historical Graphs
 
 
Tabular Data for Agost 4, 2017
Time Temperature Dew Point Pressure Wind Wind Speed Wind Gust Humidity Rainfall Rate (Hourly) solar Conditions
00:03 28.5 °C 15.4 °C 1013.1 hPa Calm     45 % 0.0 mm 0.0 W/m2 CLR
00:08 28.3 °C 15.6 °C 1013.1 hPa Calm   3.4 km/h 46 % 0.0 mm 0.0 W/m2 CLR
00:13 28.6 °C 15.4 °C 1013.1 hPa Calm     45 % 0.0 mm 0.0 W/m2 CLR
00:18 28.6 °C 15.4 °C 1013.1 hPa SSW 3.7 km/h 3.7 km/h 45 % 0.0 mm 0.0 W/m2 CLR
00:23 28.5 °C 15.4 °C 1013.1 hPa Calm     45 % 0.0 mm 0.0 W/m2 CLR
00:28 28.1 °C 15.4 °C 1013.1 hPa Calm     46 % 0.0 mm 0.0 W/m2 CLR
00:33 27.7 °C 15.3 °C 1012.8 hPa Calm     47 % 0.0 mm 0.0 W/m2 CLR
00:38 27.2 °C 15.3 °C 1012.8 hPa Calm     48 % 0.0 mm 0.0 W/m2 CLR
00:43 26.8 °C 15.2 °C 1012.8 hPa Calm     49 % 0.0 mm 0.0 W/m2 CLR
00:48 26.5 °C 15.2 °C 1013.1 hPa Calm     50 % 0.0 mm 0.0 W/m2 CLR
00:53 26.3 °C 15.4 °C 1012.8 hPa Calm     51 % 0.0 mm 0.0 W/m2 CLR
00:58 26.2 °C 15.2 °C 1012.8 hPa Calm     51 % 0.0 mm 0.0 W/m2 CLR
01:03 26.1 °C 15.1 °C 1012.8 hPa Calm     51 % 0.0 mm 0.0 W/m2 CLR
01:08 26.0 °C 15.1 °C 1012.8 hPa Calm     51 % 0.0 mm 0.0 W/m2 CLR
01:13 25.9 °C 15.3 °C 1013.1 hPa Calm     52 % 0.0 mm 0.0 W/m2 CLR
01:18 25.8 °C 15.2 °C 1013.1 hPa Calm     52 % 0.0 mm 0.0 W/m2 CLR
01:23 25.6 °C 15.0 °C 1012.8 hPa Calm     52 % 0.0 mm 0.0 W/m2 CLR
01:28 25.4 °C 15.2 °C 1012.8 hPa Calm     53 % 0.0 mm 0.0 W/m2 CLR
01:33 25.5 °C 15.2 °C 1013.1 hPa Calm     53 % 0.0 mm 0.0 W/m2 CLR
01:38 25.5 °C 15.2 °C 1012.8 hPa Calm     53 % 0.0 mm 0.0 W/m2 CLR
01:43 25.4 °C 15.1 °C 1012.8 hPa Calm     53 % 0.0 mm 0.0 W/m2 CLR
01:48 25.4 °C 15.2 °C 1012.8 hPa Calm     53 % 0.0 mm 0.0 W/m2 CLR
01:53 25.4 °C 15.2 °C 1013.1 hPa Calm     53 % 0.0 mm 0.0 W/m2 CLR
01:58 25.2 °C 14.9 °C 1012.8 hPa Calm     53 % 0.0 mm 0.0 W/m2 CLR
02:03 25.0 °C 15.1 °C 1012.8 hPa Calm     54 % 0.0 mm 0.0 W/m2 CLR
02:08 24.9 °C 15.2 °C 1012.8 hPa Calm     55 % 0.0 mm 0.0 W/m2 CLR
02:13 24.9 °C 15.0 °C 1012.8 hPa Calm     54 % 0.0 mm 0.0 W/m2 CLR
02:18 25.0 °C 15.1 °C 1012.8 hPa Calm     54 % 0.0 mm 0.0 W/m2 CLR
02:23 24.9 °C 14.9 °C 1012.8 hPa Calm     54 % 0.0 mm 0.0 W/m2 CLR
02:24 24.9 °C 14.9 °C 1012.8 hPa Calm     54 % 0.0 mm 0.0 W/m2 CLR
02:28 24.7 °C 14.8 °C 1012.8 hPa Calm     54 % 0.0 mm 0.0 W/m2 CLR
02:33 24.6 °C 14.9 °C 1012.8 hPa Calm     55 % 0.0 mm 0.0 W/m2 CLR
02:38 24.3 °C 14.7 °C 1012.8 hPa Calm     55 % 0.0 mm 0.0 W/m2 CLR
02:43 24.0 °C 14.7 °C 1012.8 hPa Calm     56 % 0.0 mm 0.0 W/m2 CLR
02:48 23.8 °C 14.7 °C 1012.8 hPa Calm     57 % 0.0 mm 0.0 W/m2 CLR
02:54 23.6 °C 14.6 °C 1013.1 hPa Calm     57 % 0.0 mm 0.0 W/m2 CLR
02:59 23.5 °C 14.8 °C 1013.1 hPa Calm     58 % 0.0 mm 0.0 W/m2 CLR
03:04 23.4 °C 14.7 °C 1013.1 hPa Calm     58 % 0.0 mm 0.0 W/m2 CLR
03:09 23.2 °C 14.5 °C 1013.1 hPa Calm     58 % 0.0 mm 0.0 W/m2 CLR
03:14 23.1 °C 14.4 °C 1013.1 hPa Calm     58 % 0.0 mm 0.0 W/m2 CLR
03:19 23.1 °C 14.7 °C 1013.1 hPa Calm     59 % 0.0 mm 0.0 W/m2 CLR
03:24 23.1 °C 14.7 °C 1013.1 hPa Calm     59 % 0.0 mm 0.0 W/m2 CLR
03:29 23.1 °C 14.3 °C 1013.1 hPa Calm     58 % 0.0 mm 0.0 W/m2 CLR
03:34 22.8 °C 14.4 °C 1013.1 hPa Calm     59 % 0.0 mm 0.0 W/m2 CLR
03:39 22.7 °C 14.2 °C 1013.1 hPa Calm     59 % 0.0 mm 0.0 W/m2 CLR
03:44 22.4 °C 14.3 °C 1013.1 hPa Calm     60 % 0.0 mm 0.0 W/m2 CLR
03:49 22.4 °C 14.2 °C 1013.1 hPa Calm     60 % 0.0 mm 0.0 W/m2 CLR
03:54 22.4 °C 14.0 °C 1013.1 hPa Calm     59 % 0.0 mm 0.0 W/m2 CLR
03:59 22.5 °C 14.1 °C 1013.1 hPa Calm     59 % 0.0 mm 0.0 W/m2 CLR
04:04 22.6 °C 14.1 °C 1013.1 hPa Calm     59 % 0.0 mm 0.0 W/m2 CLR
04:09 22.6 °C 14.2 °C 1013.1 hPa Calm     59 % 0.0 mm 0.0 W/m2 CLR
04:14 22.7 °C 14.2 °C 1013.1 hPa Calm     59 % 0.0 mm 0.0 W/m2 CLR
04:19 22.7 °C 14.1 °C 1013.1 hPa Calm     58 % 0.0 mm 0.0 W/m2 CLR
04:24 22.7 °C 14.3 °C 1013.1 hPa Calm     59 % 0.0 mm 0.0 W/m2 CLR
04:29 22.7 °C 14.0 °C 1013.1 hPa WSW 1.9 km/h 1.9 km/h 58 % 0.0 mm 0.0 W/m2 CLR
04:34 22.7 °C 14.1 °C 1013.1 hPa SW 1.9 km/h   58 % 0.0 mm 0.0 W/m2 CLR
04:39 22.8 °C 13.9 °C 1013.1 hPa Calm     57 % 0.0 mm 0.0 W/m2 CLR
04:44 22.9 °C 14.2 °C 1013.1 hPa Calm     58 % 0.0 mm 0.0 W/m2 CLR
04:49 22.9 °C 14.2 °C 1013.4 hPa Calm     58 % 0.0 mm 0.0 W/m2 CLR
04:54 22.8 °C 13.9 °C 1013.4 hPa Calm     57 % 0.0 mm 0.0 W/m2 CLR
04:59 22.8 °C 14.1 °C 1013.4 hPa Calm     58 % 0.0 mm 0.0 W/m2 CLR
05:04 22.8 °C 14.1 °C 1013.4 hPa Calm     58 % 0.0 mm 0.0 W/m2 CLR
05:09 22.8 °C 14.4 °C 1013.4 hPa Calm     59 % 0.0 mm 0.0 W/m2 CLR
05:15 22.9 °C 14.4 °C 1013.4 hPa Calm     59 % 0.0 mm 0.0 W/m2 CLR
05:17 22.9 °C 14.4 °C 1013.4 hPa Calm     59 % 0.0 mm 0.0 W/m2 CLR
05:20 22.8 °C 14.6 °C 1013.4 hPa Calm     60 % 0.0 mm 0.0 W/m2 CLR
05:21 22.8 °C 14.6 °C 1013.4 hPa Calm     60 % 0.0 mm 0.0 W/m2 CLR
05:24 22.7 °C 14.2 °C 1013.4 hPa Calm     59 % 0.0 mm 0.0 W/m2 CLR
05:26 22.7 °C 14.2 °C 1013.4 hPa Calm   0.2 km/h 59 % 0.0 mm 0.0 W/m2 CLR
05:31 22.7 °C 14.2 °C 1013.4 hPa Calm     59 % 0.0 mm 0.0 W/m2 CLR
05:41 22.6 °C 14.4 °C 1013.4 hPa Calm     60 % 0.0 mm 0.0 W/m2 CLR
05:46 22.4 °C 14.3 °C 1013.4 hPa Calm     60 % 0.0 mm 0.0 W/m2 CLR
05:51 22.4 °C 14.5 °C 1013.8 hPa Calm     61 % 0.0 mm 0.0 W/m2 CLR
05:56 22.3 °C 14.4 °C 1013.8 hPa Calm     61 % 0.0 mm 0.0 W/m2 CLR
06:01 22.2 °C 14.3 °C 1013.8 hPa Calm     61 % 0.0 mm 0.0 W/m2 CLR
06:06 22.2 °C 14.3 °C 1013.8 hPa Calm     61 % 0.0 mm 0.0 W/m2 CLR
06:11 22.2 °C 14.3 °C 1013.8 hPa Calm     61 % 0.0 mm 0.0 W/m2 CLR
06:16 22.1 °C 14.4 °C 1013.8 hPa Calm     62 % 0.0 mm 0.0 W/m2 CLR
06:21 22.0 °C 14.4 °C 1013.8 hPa Calm     62 % 0.0 mm 0.0 W/m2 CLR
06:26 21.9 °C 14.3 °C 1013.8 hPa Calm     62 % 0.0 mm 0.0 W/m2 CLR
06:31 21.8 °C 14.2 °C 1014.1 hPa Calm     62 % 0.0 mm 0.0 W/m2 CLR
06:36 21.7 °C 14.3 °C 1014.1 hPa Calm     63 % 0.0 mm 0.0 W/m2 CLR
06:41 21.6 °C 14.4 °C 1014.1 hPa Calm     64 % 0.0 mm 0.0 W/m2 CLR
06:46 21.4 °C 14.3 °C 1014.1 hPa Calm     64 % 0.0 mm 0.0 W/m2 CLR
06:51 21.4 °C 14.6 °C 1014.1 hPa Calm     65 % 0.0 mm 0.0 W/m2 OVC
06:56 21.4 °C 14.6 °C 1014.1 hPa Calm     65 % 0.0 mm 0.0 W/m2 OVC
07:01 21.4 °C 14.6 °C 1014.1 hPa Calm     65 % 0.0 mm 5.0 W/m2 OVC
07:06 21.4 °C 14.8 °C 1014.1 hPa Calm     66 % 0.0 mm 9.0 W/m2 BKN
07:11 21.5 °C 14.9 °C 1014.4 hPa Calm     66 % 0.0 mm 11.0 W/m2 BKN
07:16 21.6 °C 14.9 °C 1014.4 hPa Calm     66 % 0.0 mm 14.0 W/m2 BKN
07:21 21.6 °C 15.0 °C 1014.4 hPa Calm     66 % 0.0 mm 18.0 W/m2 BKN
07:26 21.6 °C 15.0 °C 1014.4 hPa Calm     66 % 0.0 mm 21.0 W/m2 BKN
07:31 21.5 °C 14.9 °C 1014.4 hPa Calm     66 % 0.0 mm 26.0 W/m2 BKN
07:36 21.5 °C 15.1 °C 1014.8 hPa Calm     67 % 0.0 mm 33.0 W/m2 BKN
07:41 21.7 °C 15.1 °C 1014.8 hPa Calm     66 % 0.0 mm 39.0 W/m2 BKN
07:46 21.9 °C 15.1 °C 1014.8 hPa Calm     65 % 0.0 mm 47.0 W/m2 SCT
07:51 22.1 °C 15.2 °C 1014.8 hPa Calm     65 % 0.0 mm 63.0 W/m2 SCT
07:56 22.3 °C 15.4 °C 1014.8 hPa Calm     65 % 0.0 mm 76.0 W/m2 FEW
08:01 22.6 °C 15.7 °C 1014.8 hPa Calm     65 % 0.0 mm 88.0 W/m2 FEW
08:06 22.8 °C 15.8 °C 1014.8 hPa Calm     65 % 0.0 mm 102.0 W/m2 CLR
08:11 23.1 °C 15.9 °C 1014.8 hPa Calm     64 % 0.0 mm 118.0 W/m2 CLR
08:16 23.4 °C 16.0 °C 1014.8 hPa Calm     63 % 0.0 mm 132.0 W/m2 CLR
08:21 23.8 °C 16.1 °C 1014.8 hPa Calm     62 % 0.0 mm 148.0 W/m2 CLR
08:26 24.2 °C 16.2 °C 1014.8 hPa Calm     61 % 0.0 mm 165.0 W/m2 CLR
08:31 24.7 °C 16.4 °C 1014.8 hPa Calm     60 % 0.0 mm 181.0 W/m2 CLR
08:37 25.1 °C 16.6 °C 1015.1 hPa Calm     59 % 0.0 mm 199.0 W/m2 CLR
08:38 25.2 °C 16.3 °C 1014.8 hPa Calm     58 % 0.0 mm 202.0 W/m2 CLR
08:43 25.5 °C 16.9 °C 1015.1 hPa Calm     59 % 0.0 mm 214.0 W/m2 CLR
08:48 25.8 °C 16.9 °C 1014.8 hPa Calm     58 % 0.0 mm 230.0 W/m2 CLR
08:53 26.1 °C 16.9 °C 1014.8 hPa WSW 9.3 km/h 9.3 km/h 57 % 0.0 mm 248.0 W/m2 CLR
08:58 26.4 °C 17.2 °C 1015.1 hPa Calm     57 % 0.0 mm 260.0 W/m2 CLR
09:03 26.8 °C 17.3 °C 1015.1 hPa Calm     56 % 0.0 mm 276.0 W/m2 CLR
09:08 27.1 °C 17.2 °C 1015.1 hPa WNW 11.1 km/h 11.1 km/h 55 % 0.0 mm 292.0 W/m2 CLR
09:13 27.2 °C 17.1 °C 1015.1 hPa West 5.6 km/h   54 % 0.0 mm 306.0 W/m2 CLR
09:18 27.3 °C 17.2 °C 1015.1 hPa WSW 9.3 km/h 9.3 km/h 54 % 0.0 mm 327.0 W/m2 CLR
09:23 27.5 °C 17.4 °C 1015.1 hPa SW 9.3 km/h 9.3 km/h 54 % 0.0 mm 339.0 W/m2 CLR
09:28 27.7 °C 17.2 °C 1015.1 hPa West 9.3 km/h 9.3 km/h 53 % 0.0 mm 355.0 W/m2 CLR
09:33 27.9 °C 17.1 °C 1015.1 hPa WNW 7.4 km/h 7.4 km/h 52 % 0.0 mm 369.0 W/m2 CLR
09:38 27.9 °C 16.9 °C 1015.1 hPa West 11.1 km/h 11.1 km/h 51 % 0.0 mm 387.0 W/m2 CLR
09:43 28.0 °C 16.9 °C 1015.1 hPa West 13.0 km/h 13.0 km/h 51 % 0.0 mm 107.0 W/m2 CLR
09:48 28.2 °C 17.1 °C 1015.1 hPa WNW 11.1 km/h 11.1 km/h 51 % 0.0 mm 192.0 W/m2 CLR
09:53 28.4 °C 17.0 °C 1015.1 hPa WNW 8.0 km/h 9.7 km/h 50 % 0.0 mm 432.0 W/m2 CLR
09:58 28.5 °C 17.1 °C 1015.1 hPa NW 13.0 km/h 13.0 km/h 50 % 0.0 mm 446.0 W/m2 CLR
10:03 28.5 °C 16.7 °C 1015.1 hPa West 13.0 km/h 13.0 km/h 49 % 0.0 mm 464.0 W/m2 CLR
10:08 28.6 °C 17.1 °C 1015.1 hPa West 5.6 km/h 5.6 km/h 50 % 0.0 mm 476.0 W/m2 CLR
10:13 28.8 °C 17.1 °C 1015.1 hPa NW 7.4 km/h 7.4 km/h 49 % 0.0 mm 494.0 W/m2 CLR
10:18 29.0 °C 17.2 °C 1015.1 hPa WNW 1.9 km/h   49 % 0.0 mm 508.0 W/m2 CLR
10:23 29.2 °C 17.3 °C 1015.1 hPa WNW 13.0 km/h 13.0 km/h 49 % 0.0 mm 522.0 W/m2 CLR
10:28 29.3 °C 17.5 °C 1015.1 hPa NW 6.4 km/h 6.4 km/h 49 % 0.0 mm 534.0 W/m2 CLR
10:33 29.5 °C 17.7 °C 1015.1 hPa Calm     49 % 0.0 mm 552.0 W/m2 CLR
10:38 29.7 °C 17.5 °C 1015.1 hPa SSW 11.1 km/h 11.1 km/h 48 % 0.0 mm 563.0 W/m2 CLR
10:39 29.7 °C 17.6 °C 1015.1 hPa WNW 18.5 km/h 18.5 km/h 48 % 0.0 mm 566.0 W/m2 CLR
10:44 29.8 °C 17.3 °C 1015.1 hPa WSW 13.0 km/h 13.0 km/h 47 % 0.0 mm 578.0 W/m2 CLR
10:49 29.8 °C 17.3 °C 1015.1 hPa Calm     47 % 0.0 mm 591.0 W/m2 CLR
10:54 30.0 °C 17.4 °C 1015.5 hPa WSW 11.1 km/h 11.1 km/h 47 % 0.0 mm 605.0 W/m2 CLR
10:59 30.1 °C 17.6 °C 1015.1 hPa NNW 14.8 km/h 14.8 km/h 47 % 0.0 mm 613.0 W/m2 CLR
11:04 30.2 °C 17.3 °C 1015.1 hPa NNW 14.8 km/h 14.8 km/h 46 % 0.0 mm 631.0 W/m2 CLR
11:09 30.4 °C 17.4 °C 1015.1 hPa Calm     46 % 0.0 mm 643.0 W/m2 CLR
11:14 30.5 °C 17.2 °C 1015.1 hPa WSW 11.1 km/h 11.1 km/h 45 % 0.0 mm 654.0 W/m2 CLR
11:19 30.4 °C 17.5 °C 1015.1 hPa Calm     46 % 0.0 mm 664.0 W/m2 CLR
11:24 30.7 °C 17.8 °C 1015.1 hPa North 18.5 km/h 18.5 km/h 46 % 0.0 mm 679.0 W/m2 CLR
11:29 30.9 °C 17.6 °C 1015.1 hPa West 3.2 km/h 3.2 km/h 45 % 0.0 mm 689.0 W/m2 CLR
11:34 31.2 °C 17.4 °C 1015.1 hPa NW 13.0 km/h 13.0 km/h 44 % 0.0 mm 701.0 W/m2 CLR
11:39 31.2 °C 17.2 °C 1015.1 hPa NW 13.0 km/h 13.0 km/h 43 % 0.0 mm 712.0 W/m2 CLR
11:44 31.3 °C 17.6 °C 1015.1 hPa NNE 9.3 km/h 9.3 km/h 44 % 0.0 mm 722.0 W/m2 CLR
11:49 31.6 °C 17.4 °C 1015.1 hPa West 9.7 km/h 9.7 km/h 43 % 0.0 mm 735.0 W/m2 CLR
11:54 31.6 °C 17.1 °C 1015.1 hPa WNW 11.1 km/h 11.1 km/h 42 % 0.0 mm 744.0 W/m2 CLR
11:59 31.7 °C 17.2 °C 1015.1 hPa NNW 11.1 km/h 11.1 km/h 42 % 0.0 mm 752.0 W/m2 CLR
12:04 31.7 °C 17.2 °C 1015.1 hPa Calm     42 % 0.0 mm 761.0 W/m2 CLR
12:09 31.8 °C 17.3 °C 1015.1 hPa WSW 11.1 km/h 11.1 km/h 42 % 0.0 mm 772.0 W/m2 CLR
12:14 31.9 °C 17.1 °C 1015.1 hPa NW 5.6 km/h 5.6 km/h 41 % 0.0 mm 779.0 W/m2 CLR
12:19 32.3 °C 17.3 °C 1015.1 hPa West 5.6 km/h 5.6 km/h 41 % 0.0 mm 788.0 W/m2 CLR
12:24 32.4 °C 17.5 °C 1014.8 hPa Calm     41 % 0.0 mm 793.0 W/m2 CLR
12:29 32.7 °C 17.3 °C 1014.8 hPa Calm     40 % 0.0 mm 803.0 W/m2 CLR
12:34 33.1 °C 17.3 °C 1014.8 hPa West 5.6 km/h 5.6 km/h 39 % 0.0 mm 810.0 W/m2 CLR
12:39 33.1 °C 17.3 °C 1014.8 hPa Calm     39 % 0.0 mm 817.0 W/m2 CLR
12:44 33.3 °C 17.5 °C 1014.8 hPa NNW 11.3 km/h 11.3 km/h 39 % 0.0 mm 823.0 W/m2 CLR
12:49 33.6 °C 17.3 °C 1014.4 hPa North 5.6 km/h   38 % 0.0 mm 830.0 W/m2 CLR
12:54 33.5 °C 17.2 °C 1014.4 hPa Calm     38 % 0.0 mm 838.0 W/m2 CLR
12:59 33.9 °C 17.2 °C 1014.4 hPa WNW 9.3 km/h 9.3 km/h 37 % 0.0 mm 844.0 W/m2 CLR
13:04 33.7 °C 17.0 °C 1014.4 hPa Calm     37 % 0.0 mm 847.0 W/m2 CLR
13:09 33.7 °C 17.0 °C 1014.1 hPa Calm     37 % 0.0 mm 851.0 W/m2 CLR
13:14 34.0 °C 17.3 °C 1014.1 hPa Calm     37 % 0.0 mm 858.0 W/m2 CLR
13:19 34.4 °C 17.6 °C 1014.1 hPa Calm     37 % 0.0 mm 858.0 W/m2 CLR
13:24 34.9 °C 17.2 °C 1014.1 hPa West 11.1 km/h 11.1 km/h 35 % 0.0 mm 861.0 W/m2 CLR
13:29 34.8 °C 17.1 °C 1014.1 hPa Calm     35 % 0.0 mm 868.0 W/m2 CLR
13:34 35.2 °C 16.9 °C 1014.1 hPa NNE 1.9 km/h   34 % 0.0 mm 868.0 W/m2 CLR
13:39 35.2 °C 17.0 °C 1014.1 hPa NW 9.7 km/h 9.7 km/h 34 % 0.0 mm 872.0 W/m2 CLR
13:44 35.1 °C 16.8 °C 1013.8 hPa North 1.9 km/h   34 % 0.0 mm 872.0 W/m2 CLR
13:49 34.9 °C 16.7 °C 1013.8 hPa WNW 8.0 km/h 8.0 km/h 34 % 0.0 mm 877.0 W/m2 CLR
13:54 35.1 °C 16.4 °C 1013.8 hPa Calm     33 % 0.0 mm 874.0 W/m2 CLR
13:59 35.3 °C 17.1 °C 1013.8 hPa South 1.9 km/h 1.9 km/h 34 % 0.0 mm 875.0 W/m2 CLR
14:04 35.4 °C 17.2 °C 1013.8 hPa ENE 3.7 km/h 3.7 km/h 34 % 0.0 mm 874.0 W/m2 CLR
14:06 35.6 °C 17.3 °C 1013.4 hPa NNW 14.8 km/h 14.8 km/h 34 % 0.0 mm 875.0 W/m2 CLR
14:11 35.6 °C 16.8 °C 1013.4 hPa WNW 11.1 km/h 11.1 km/h 33 % 0.0 mm 877.0 W/m2 CLR
14:12 35.6 °C 16.8 °C 1013.4 hPa WNW 7.4 km/h 7.4 km/h 33 % 0.0 mm 875.0 W/m2 CLR
14:17 35.6 °C 16.8 °C 1013.4 hPa Calm     33 % 0.0 mm 875.0 W/m2 CLR
14:22 35.8 °C 17.1 °C 1013.4 hPa NW 5.6 km/h 5.6 km/h 33 % 0.0 mm 877.0 W/m2 CLR
14:27 35.8 °C 17.1 °C 1013.4 hPa NNW 5.6 km/h 5.6 km/h 33 % 0.0 mm 875.0 W/m2 CLR
14:32 35.9 °C 17.1 °C 1013.4 hPa Calm     33 % 0.0 mm 874.0 W/m2 CLR
14:37 36.1 °C 16.8 °C 1013.4 hPa WNW 9.3 km/h 9.3 km/h 32 % 0.0 mm 870.0 W/m2 CLR
14:42 36.1 °C 16.8 °C 1013.4 hPa North 18.5 km/h 18.5 km/h 32 % 0.0 mm 867.0 W/m2 CLR
14:47 36.1 °C 17.3 °C 1013.4 hPa WNW 11.1 km/h 11.1 km/h 33 % 0.0 mm 863.0 W/m2 CLR
14:52 36.3 °C 16.9 °C 1013.4 hPa NNE 18.5 km/h 18.5 km/h 32 % 0.0 mm 863.0 W/m2 CLR
14:57 36.3 °C 17.0 °C 1013.1 hPa NNE 12.9 km/h 12.9 km/h 32 % 0.0 mm 858.0 W/m2 CLR
15:02 36.2 °C 16.9 °C 1013.1 hPa North 7.4 km/h 7.4 km/h 32 % 0.0 mm 856.0 W/m2 CLR
15:07 36.2 °C 16.9 °C 1013.1 hPa North 11.1 km/h 11.1 km/h 32 % 0.0 mm 851.0 W/m2 CLR
15:12 36.4 °C 17.1 °C 1013.1 hPa NE 14.8 km/h 14.8 km/h 32 % 0.0 mm 846.0 W/m2 CLR
15:17 36.3 °C 16.5 °C 1013.1 hPa NNE 9.3 km/h 9.3 km/h 31 % 0.0 mm 840.0 W/m2 CLR
15:22 36.4 °C 17.1 °C 1013.1 hPa NW 16.7 km/h 16.7 km/h 32 % 0.0 mm 837.0 W/m2 CLR
15:27 36.4 °C 16.6 °C 1012.8 hPa Calm     31 % 0.0 mm 828.0 W/m2 CLR
15:32 36.4 °C 16.6 °C 1012.8 hPa South 1.6 km/h 1.6 km/h 31 % 0.0 mm 823.0 W/m2 CLR
15:37 36.6 °C 16.7 °C 1012.8 hPa NW 6.4 km/h 6.4 km/h 31 % 0.0 mm 817.0 W/m2 CLR
15:42 36.7 °C 16.3 °C 1012.8 hPa NNW 9.7 km/h 9.7 km/h 30 % 0.0 mm 814.0 W/m2 CLR
15:47 37.0 °C 16.0 °C 1012.8 hPa North 9.3 km/h 9.7 km/h 29 % 0.0 mm 809.0 W/m2 CLR
15:52 37.1 °C 16.1 °C 1012.4 hPa NNE 1.6 km/h 1.6 km/h 29 % 0.0 mm 796.0 W/m2 CLR
15:57 37.2 °C 16.2 °C 1012.4 hPa NW 14.8 km/h 14.8 km/h 29 % 0.0 mm 788.0 W/m2 CLR
16:02 37.3 °C 16.3 °C 1012.4 hPa Calm     29 % 0.0 mm 782.0 W/m2 CLR
16:07 37.6 °C 16.6 °C 1012.4 hPa ENE 3.7 km/h 3.7 km/h 29 % 0.0 mm 775.0 W/m2 CLR
16:12 37.9 °C 15.7 °C 1012.4 hPa NNE 17.7 km/h 17.7 km/h 27 % 0.0 mm 766.0 W/m2 CLR
16:17 37.8 °C 15.6 °C 1012.4 hPa NNE 18.5 km/h 18.5 km/h 27 % 0.0 mm 756.0 W/m2 CLR
16:23 37.7 °C 15.5 °C 1012.4 hPa NNE 11.1 km/h 11.1 km/h 27 % 0.0 mm 747.0 W/m2 CLR
16:28 37.6 °C 14.8 °C 1012.4 hPa NNW 16.7 km/h 16.7 km/h 26 % 0.0 mm 742.0 W/m2 CLR
16:33 37.6 °C 15.4 °C 1012.1 hPa North 9.3 km/h 9.3 km/h 27 % 0.0 mm 726.0 W/m2 CLR
16:38 37.6 °C 15.4 °C 1012.1 hPa ENE 9.3 km/h 9.3 km/h 27 % 0.0 mm 719.0 W/m2 CLR
16:43 37.6 °C 15.9 °C 1012.1 hPa North 18.5 km/h 18.5 km/h 28 % 0.0 mm 710.0 W/m2 CLR
16:48 37.9 °C 15.7 °C 1012.1 hPa NW 16.7 km/h 16.7 km/h 27 % 0.0 mm 696.0 W/m2 CLR
16:49 37.9 °C 15.7 °C 1012.1 hPa NW 5.6 km/h 5.6 km/h 27 % 0.0 mm 691.0 W/m2 CLR
16:54 37.8 °C 15.0 °C 1012.1 hPa NNE 14.8 km/h 14.8 km/h 26 % 0.0 mm 677.0 W/m2 CLR
16:59 37.9 °C 15.7 °C 1012.1 hPa NE 3.7 km/h 3.7 km/h 27 % 0.0 mm 666.0 W/m2 CLR
17:04 37.7 °C 14.9 °C 1012.1 hPa WNW 5.6 km/h 5.6 km/h 26 % 0.0 mm 657.0 W/m2 CLR
17:09 37.8 °C 15.0 °C 1011.7 hPa NNW 7.4 km/h 7.4 km/h 26 % 0.0 mm 643.0 W/m2 CLR
17:14 37.9 °C 15.7 °C 1011.7 hPa NE 13.0 km/h 13.0 km/h 27 % 0.0 mm 628.0 W/m2 CLR
17:19 38.0 °C 15.8 °C 1011.7 hPa NW 5.6 km/h 5.6 km/h 27 % 0.0 mm 619.0 W/m2 CLR
17:24 38.0 °C 15.8 °C 1011.7 hPa Calm     27 % 0.0 mm 603.0 W/m2 CLR
17:29 38.1 °C 15.3 °C 1011.7 hPa NE 5.6 km/h 5.6 km/h 26 % 0.0 mm 589.0 W/m2 CLR
17:34 38.1 °C 15.2 °C 1011.7 hPa NW 18.5 km/h 18.5 km/h 26 % 0.0 mm 578.0 W/m2 CLR
17:39 38.0 °C 15.2 °C 1011.7 hPa NNW 19.3 km/h 19.3 km/h 26 % 0.0 mm 566.0 W/m2 CLR
17:44 37.9 °C 15.1 °C 1011.7 hPa NNE 9.3 km/h 9.3 km/h 26 % 0.0 mm 550.0 W/m2 CLR
17:49 38.0 °C 15.2 °C 1011.4 hPa North 4.8 km/h 4.8 km/h 26 % 0.0 mm 540.0 W/m2 CLR
17:54 37.9 °C 14.6 °C 1011.4 hPa WNW 14.8 km/h 14.8 km/h 25 % 0.0 mm 526.0 W/m2 CLR
17:59 38.0 °C 14.6 °C 1011.4 hPa NNE 13.0 km/h 13.0 km/h 25 % 0.0 mm 512.0 W/m2 CLR
18:04 37.9 °C 14.6 °C 1011.4 hPa NNE 18.5 km/h 18.5 km/h 25 % 0.0 mm 497.0 W/m2 CLR
18:09 37.9 °C 13.9 °C 1011.4 hPa North 9.7 km/h 9.7 km/h 24 % 0.0 mm 483.0 W/m2 CLR
18:14 37.9 °C 13.9 °C 1011.4 hPa North 13.0 km/h 13.0 km/h 24 % 0.0 mm 468.0 W/m2 CLR
18:19 37.9 °C 13.9 °C 1011.4 hPa NE 22.5 km/h 22.5 km/h 24 % 0.0 mm 452.0 W/m2 CLR
18:24 37.9 °C 13.9 °C 1011.4 hPa NNW 14.5 km/h 14.5 km/h 24 % 0.0 mm 438.0 W/m2 CLR
18:29 37.9 °C 13.9 °C 1011.4 hPa North 18.5 km/h 18.5 km/h 24 % 0.0 mm 422.0 W/m2 CLR
18:34 37.9 °C 13.9 °C 1011.4 hPa NNW 18.5 km/h 18.5 km/h 24 % 0.0 mm 406.0 W/m2 CLR
18:39 37.9 °C 13.9 °C 1011.4 hPa NNW 5.6 km/h 5.6 km/h 24 % 0.0 mm 387.0 W/m2 CLR
18:44 37.9 °C 13.9 °C 1011.4 hPa North 13.0 km/h 13.0 km/h 24 % 0.0 mm 373.0 W/m2 CLR
18:49 37.9 °C 13.9 °C 1011.4 hPa North 4.8 km/h 4.8 km/h 24 % 0.0 mm 360.0 W/m2 CLR
18:54 37.9 °C 13.2 °C 1011.4 hPa Calm     23 % 0.0 mm 346.0 W/m2 CLR
18:59 37.9 °C 13.2 °C 1011.4 hPa North 16.7 km/h 16.7 km/h 23 % 0.0 mm 325.0 W/m2 CLR
19:04 37.9 °C 13.9 °C 1011.4 hPa NE 5.6 km/h   24 % 0.0 mm 309.0 W/m2 CLR
19:09 37.9 °C 13.9 °C 1011.4 hPa North 14.5 km/h 14.5 km/h 24 % 0.0 mm 294.0 W/m2 CLR
19:14 37.9 °C 13.9 °C 1011.4 hPa North 13.0 km/h 13.0 km/h 24 % 0.0 mm 281.0 W/m2 CLR
19:19 37.9 °C 13.9 °C 1011.4 hPa NNW 16.7 km/h 16.7 km/h 24 % 0.0 mm 269.0 W/m2 CLR
19:24 37.9 °C 13.9 °C 1011.4 hPa North 5.6 km/h 5.6 km/h 24 % 0.0 mm 251.0 W/m2 CLR
19:29 37.9 °C 13.9 °C 1011.4 hPa Calm     24 % 0.0 mm 237.0 W/m2 CLR
19:34 37.9 °C 13.9 °C 1011.4 hPa North 14.8 km/h 14.8 km/h 24 % 0.0 mm 221.0 W/m2 CLR
19:39 37.9 °C 13.2 °C 1011.4 hPa NNW 5.6 km/h 5.6 km/h 23 % 0.0 mm 202.0 W/m2 CLR
19:44 37.9 °C 13.2 °C 1011.4 hPa NNW 5.6 km/h   23 % 0.0 mm 183.0 W/m2 CLR
19:45 37.9 °C 13.2 °C 1011.4 hPa NNW 5.6 km/h 5.6 km/h 23 % 0.0 mm 183.0 W/m2 CLR
19:50 37.9 °C 13.2 °C 1011.4 hPa NNW 5.6 km/h   23 % 0.0 mm 165.0 W/m2 CLR
19:55 37.9 °C 13.2 °C 1011.4 hPa NNW 9.3 km/h 9.3 km/h 23 % 0.0 mm 149.0 W/m2 CLR
20:00 37.9 °C 13.2 °C 1011.4 hPa Calm   0.6 km/h 23 % 0.0 mm 128.0 W/m2 CLR
20:05 37.9 °C 13.2 °C 1011.4 hPa Calm     23 % 0.0 mm 114.0 W/m2 CLR
20:10 37.9 °C 13.2 °C 1011.4 hPa NNW 5.6 km/h 5.6 km/h 23 % 0.0 mm 98.0 W/m2 CLR
20:15 37.9 °C 13.9 °C 1011.4 hPa Calm   0.2 km/h 24 % 0.0 mm 84.0 W/m2 CLR
20:20 37.9 °C 13.2 °C 1011.4 hPa Calm     23 % 0.0 mm 72.0 W/m2 FEW
20:25 37.9 °C 13.2 °C 1011.4 hPa Calm     23 % 0.0 mm 58.0 W/m2 SCT
20:30 37.9 °C 13.9 °C 1011.4 hPa Calm     24 % 0.0 mm 39.0 W/m2 BKN
20:35 37.9 °C 13.9 °C 1011.4 hPa Calm     24 % 0.0 mm 35.0 W/m2 BKN
20:40 37.9 °C 13.9 °C 1011.4 hPa Calm     24 % 0.0 mm 26.0 W/m2 BKN
20:45 37.9 °C 13.9 °C 1011.4 hPa Calm     24 % 0.0 mm 18.0 W/m2 BKN
20:50 37.9 °C 13.9 °C 1011.4 hPa Calm     24 % 0.0 mm 14.0 W/m2 BKN
20:55 37.9 °C 14.6 °C 1011.4 hPa Calm     25 % 0.0 mm 12.0 W/m2 BKN
21:00 37.9 °C 14.6 °C 1011.4 hPa Calm     25 % 0.0 mm 9.0 W/m2 BKN
21:05 37.9 °C 15.2 °C 1011.4 hPa Calm     26 % 0.0 mm 7.0 W/m2 BKN
21:10 35.5 °C 13.1 °C 1011.4 hPa Calm     26 % 0.0 mm 5.0 W/m2 OVC
21:15 35.1 °C 13.3 °C 1011.7 hPa Calm     27 % 0.0 mm 0.0 W/m2 OVC
21:20 34.7 °C 13.0 °C 1011.7 hPa Calm     27 % 0.0 mm 0.0 W/m2 OVC
21:25 34.5 °C 13.3 °C 1011.7 hPa Calm     28 % 0.0 mm 0.0 W/m2 CLR
21:30 34.2 °C 13.1 °C 1011.7 hPa Calm     28 % 0.0 mm 0.0 W/m2 CLR
21:35 34.0 °C 12.9 °C 1011.7 hPa Calm     28 % 0.0 mm 0.0 W/m2 CLR
21:40 33.8 °C 13.3 °C 1011.7 hPa Calm     29 % 0.0 mm 0.0 W/m2 CLR
21:45 33.5 °C 13.6 °C 1011.7 hPa Calm     30 % 0.0 mm 0.0 W/m2 CLR
21:50 33.1 °C 13.7 °C 1012.1 hPa Calm     31 % 0.0 mm 0.0 W/m2 CLR
21:55 32.5 °C 13.7 °C 1012.1 hPa Calm     32 % 0.0 mm 0.0 W/m2 CLR
22:00 32.2 °C 13.4 °C 1012.1 hPa Calm     32 % 0.0 mm 0.0 W/m2 CLR
22:05 31.9 °C 13.7 °C 1012.1 hPa Calm     33 % 0.0 mm 0.0 W/m2 CLR
22:10 31.7 °C 13.4 °C 1012.4 hPa Calm     33 % 0.0 mm 0.0 W/m2 CLR
22:15 31.3 °C 13.6 °C 1012.4 hPa Calm     34 % 0.0 mm 0.0 W/m2 CLR
22:20 31.0 °C 13.7 °C 1012.4 hPa Calm     35 % 0.0 mm 0.0 W/m2 CLR
22:25 30.7 °C 13.5 °C 1012.4 hPa Calm     35 % 0.0 mm 0.0 W/m2 CLR
22:30 30.4 °C 13.7 °C 1012.4 hPa Calm     36 % 0.0 mm 0.0 W/m2 CLR
22:35 30.3 °C 13.6 °C 1012.4 hPa Calm     36 % 0.0 mm 0.0 W/m2 CLR
22:40 30.1 °C 13.3 °C 1012.4 hPa Calm     36 % 0.0 mm 0.0 W/m2 CLR
22:45 29.8 °C 13.6 °C 1012.8 hPa Calm     37 % 0.0 mm 0.0 W/m2 CLR
22:50 29.7 °C 13.4 °C 1012.8 hPa Calm     37 % 0.0 mm 0.0 W/m2 CLR
22:55 29.5 °C 13.7 °C 1012.8 hPa Calm     38 % 0.0 mm 0.0 W/m2 CLR
23:00 29.3 °C 13.6 °C 1012.8 hPa Calm     38 % 0.0 mm 0.0 W/m2 CLR
23:05 29.2 °C 13.4 °C 1012.8 hPa Calm     38 % 0.0 mm 0.0 W/m2 CLR
23:10 29.1 °C 13.3 °C 1012.8 hPa Calm     38 % 0.0 mm 0.0 W/m2 CLR
23:15 29.0 °C 13.7 °C 1012.8 hPa Calm     39 % 0.0 mm 0.0 W/m2 CLR
23:20 28.9 °C 13.6 °C 1012.8 hPa Calm     39 % 0.0 mm 0.0 W/m2 CLR
23:25 28.9 °C 13.6 °C 1012.8 hPa Calm     39 % 0.0 mm 0.0 W/m2 CLR
23:30 28.8 °C 13.5 °C 1012.8 hPa Calm     39 % 0.0 mm 0.0 W/m2 CLR
23:35 28.7 °C 13.7 °C 1012.8 hPa Calm     40 % 0.0 mm 0.0 W/m2 CLR
23:40 28.5 °C 13.6 °C 1012.8 hPa Calm     40 % 0.0 mm 0.0 W/m2 CLR
23:45 28.4 °C 13.5 °C 1012.8 hPa Calm     40 % 0.0 mm 0.0 W/m2 CLR
23:50 28.3 °C 13.4 °C 1012.8 hPa Calm     40 % 0.0 mm 0.0 W/m2 CLR
23:55 28.2 °C 13.7 °C 1012.8 hPa Calm     41 % 0.0 mm 0.0 W/m2 CLR
Lo Temps de Massalio
Compliments of Weather Underground - 1.25 mb